User: anonymous   Login
Location: Ciudad Delicias
(28.2170°N, 105.4670°W)
Time: 06:12:42
(UTC-07:00)
Language:

ETS-7 - Orbit

View from above orbital plane
View from above orbital plane
View from above satellite
View from above satellite

Ground track
Ground track

The orbit data is extracted from the following two-line orbital elements,

1 25064U 97074B   15090.51852382  .00060791  00000-0  56051-3 0  9996
2 25064 034.9548 168.7716 0002308 240.0952 236.8114 15.66439800965943
Epoch (UTC): 31 March 2015 12:26:40
Eccentricity: 0.0002308
inclination: 34.9548°
perigee height: 367 km
apogee height: 370 km
right ascension of ascending node: 168.7716°
argument of perigee: 240.0952°
revolutions per day: 15.66439800
mean anomaly at epoch: 236.8114°
orbit number at epoch: 96594

The dashed part of the orbit path shows where the satellite is in the earth's shadow,  

DLR